CES5550 ZSWZ-ZGHA

Flight info

Callsign CES5550
Flight time N/A
Altitude 25600
Route BZ5X BZ DCT SHR DCT P395 DCT AVDIP W226 DALEP DAL1X
Aircraft A21N/M-SDE2E3FGHIRWXY/LB1

Departure

Time N/A
Airport Wenzhou Longwan International Airport (ZSWZ)

Arrival

Time 2026-04-17 08:44
Airport Changsha Huanghua International Airport (ZGHA)
Time Latitude Longitude Altitude Speed Heading
2026-04-17 08:00 28.98184 117.18247 27551 ft 411 kts 248°
2026-04-17 08:01 28.97092 117.15238 27559 ft 411 kts 247°
2026-04-17 08:01 28.96000 117.12216 27555 ft 410 kts 248°
2026-04-17 08:01 28.94921 117.09199 27553 ft 411 kts 248°
2026-04-17 08:01 28.93845 117.06173 27553 ft 412 kts 248°
2026-04-17 08:02 28.92762 117.03126 27553 ft 412 kts 248°
2026-04-17 08:02 28.91695 117.00121 27533 ft 412 kts 248°
2026-04-17 08:02 28.90622 116.97101 27542 ft 411 kts 248°
2026-04-17 08:02 28.89541 116.94063 27552 ft 411 kts 248°
2026-04-17 08:03 28.88464 116.91045 27551 ft 411 kts 248°
2026-04-17 08:03 28.87383 116.88013 27552 ft 411 kts 248°
2026-04-17 08:03 28.86303 116.84986 27559 ft 411 kts 248°
2026-04-17 08:03 28.85225 116.81970 27558 ft 412 kts 248°
2026-04-17 08:04 28.84140 116.78936 27555 ft 412 kts 248°
2026-04-17 08:04 28.83058 116.75911 27554 ft 412 kts 248°
2026-04-17 08:04 28.81980 116.72891 27555 ft 412 kts 248°
2026-04-17 08:04 28.80900 116.69873 27557 ft 411 kts 248°
2026-04-17 08:05 28.79830 116.66889 27559 ft 412 kts 248°
2026-04-17 08:05 28.78743 116.63859 27560 ft 411 kts 248°
2026-04-17 08:05 28.77657 116.60831 27562 ft 411 kts 248°
2026-04-17 08:05 28.76573 116.57815 27562 ft 411 kts 248°
2026-04-17 08:06 28.75490 116.54803 27576 ft 412 kts 248°
2026-04-17 08:06 28.74415 116.51815 27542 ft 411 kts 248°
2026-04-17 08:06 28.73326 116.48788 27552 ft 411 kts 248°
2026-04-17 08:06 28.72239 116.45775 27469 ft 411 kts 248°
2026-04-17 08:07 28.71147 116.42756 27266 ft 412 kts 248°
2026-04-17 08:07 28.70066 116.39765 27037 ft 414 kts 248°
2026-04-17 08:07 28.68964 116.36714 26794 ft 416 kts 248°
2026-04-17 08:07 28.67857 116.33659 26557 ft 418 kts 248°
2026-04-17 08:08 28.66742 116.30578 26312 ft 420 kts 248°
2026-04-17 08:08 28.65621 116.27486 26072 ft 423 kts 248°
2026-04-17 08:08 28.64497 116.24390 25849 ft 426 kts 248°
2026-04-17 08:08 28.63363 116.21265 25613 ft 429 kts 248°
2026-04-17 08:09 28.62223 116.18123 25380 ft 431 kts 248°
2026-04-17 08:09 28.61085 116.14990 25149 ft 434 kts 248°
2026-04-17 08:09 28.59926 116.11802 24922 ft 436 kts 248°
2026-04-17 08:09 28.58766 116.08614 24688 ft 438 kts 248°
2026-04-17 08:10 28.57597 116.05407 24461 ft 440 kts 248°
2026-04-17 08:10 28.56419 116.02173 24236 ft 442 kts 248°
2026-04-17 08:10 28.55233 115.98926 24019 ft 445 kts 248°
2026-04-17 08:10 28.54045 115.95661 23794 ft 447 kts 248°
2026-04-17 08:11 28.53089 115.92331 23601 ft 450 kts 256°
2026-04-17 08:11 28.52492 115.88846 23537 ft 450 kts 260°
2026-04-17 08:11 28.51962 115.85328 23543 ft 450 kts 260°
2026-04-17 08:11 28.51435 115.81814 23558 ft 450 kts 260°
2026-04-17 08:12 28.50900 115.78292 23564 ft 450 kts 260°
2026-04-17 08:12 28.50367 115.74823 23570 ft 450 kts 260°
2026-04-17 08:12 28.49825 115.71300 23569 ft 450 kts 260°
2026-04-17 08:12 28.49288 115.67805 23432 ft 443 kts 260°
2026-04-17 08:13 28.48760 115.64358 23056 ft 449 kts 260°
2026-04-17 08:13 28.48266 115.60850 22707 ft 447 kts 261°
2026-04-17 08:13 28.47784 115.57360 22366 ft 445 kts 261°
2026-04-17 08:14 28.46826 115.50456 21706 ft 442 kts 261°
2026-04-17 08:14 28.46346 115.47001 21377 ft 440 kts 261°
2026-04-17 08:14 28.45871 115.43585 21056 ft 439 kts 261°
2026-04-17 08:14 28.45392 115.40153 20718 ft 436 kts 261°
2026-04-17 08:15 28.44919 115.36773 20416 ft 435 kts 261°
2026-04-17 08:15 28.44442 115.33381 20102 ft 433 kts 261°
2026-04-17 08:15 28.43966 115.29999 19799 ft 432 kts 260°
2026-04-17 08:15 28.43496 115.26665 19504 ft 430 kts 260°
2026-04-17 08:16 28.43025 115.23319 19213 ft 429 kts 260°
2026-04-17 08:16 28.42549 115.19977 18937 ft 428 kts 260°
2026-04-17 08:16 28.42071 115.16641 18684 ft 426 kts 260°
2026-04-17 08:16 28.41603 115.13324 18398 ft 425 kts 260°
2026-04-17 08:17 28.41135 115.10002 18094 ft 424 kts 260°
2026-04-17 08:17 28.40665 115.06694 17772 ft 422 kts 260°
2026-04-17 08:17 28.40196 115.03409 17462 ft 421 kts 260°
2026-04-17 08:17 28.39730 115.00160 17463 ft 426 kts 260°
2026-04-17 08:18 28.39262 114.96890 16863 ft 440 kts 260°
2026-04-17 08:18 28.38773 114.93476 16558 ft 428 kts 260°
2026-04-17 08:18 28.38309 114.90243 16269 ft 415 kts 260°
2026-04-17 08:18 28.37844 114.87017 15994 ft 413 kts 260°
2026-04-17 08:19 28.37379 114.83796 15739 ft 412 kts 260°
2026-04-17 08:19 28.36913 114.80580 15652 ft 412 kts 260°
2026-04-17 08:19 28.36454 114.77404 15651 ft 412 kts 260°
2026-04-17 08:19 28.35988 114.74191 15664 ft 412 kts 260°
2026-04-17 08:20 28.35521 114.70972 15671 ft 412 kts 260°
2026-04-17 08:20 28.35054 114.67767 15681 ft 412 kts 260°
2026-04-17 08:20 28.34586 114.64562 15683 ft 411 kts 260°
2026-04-17 08:20 28.34124 114.61390 15678 ft 411 kts 260°
2026-04-17 08:21 28.33800 114.58160 15672 ft 411 kts 269°
2026-04-17 08:21 28.33941 114.54912 15682 ft 411 kts 273°
2026-04-17 08:21 28.34157 114.51682 15689 ft 412 kts 273°
2026-04-17 08:21 28.34370 114.48422 15684 ft 412 kts 273°
2026-04-17 08:22 28.34569 114.45179 15601 ft 411 kts 273°
2026-04-17 08:22 28.34756 114.41984 15414 ft 410 kts 272°
2026-04-17 08:22 28.34941 114.38753 15193 ft 409 kts 272°
2026-04-17 08:22 28.35121 114.35526 14968 ft 410 kts 272°
2026-04-17 08:23 28.35299 114.32292 14733 ft 408 kts 272°
2026-04-17 08:23 28.35477 114.29072 14500 ft 408 kts 272°
2026-04-17 08:23 28.35655 114.25858 14267 ft 407 kts 272°
2026-04-17 08:23 28.35831 114.22695 14047 ft 406 kts 273°
2026-04-17 08:24 28.36007 114.19502 13826 ft 405 kts 272°
2026-04-17 08:24 28.36177 114.16323 13575 ft 404 kts 272°
2026-04-17 08:24 28.36344 114.13153 13318 ft 402 kts 272°
2026-04-17 08:24 28.36514 114.09960 13055 ft 402 kts 272°
2026-04-17 08:25 28.36680 114.06809 12813 ft 395 kts 273°
2026-04-17 08:25 28.36847 114.03752 12555 ft 379 kts 273°
2026-04-17 08:25 28.37004 114.00831 12308 ft 364 kts 273°
2026-04-17 08:25 28.37151 113.98046 12128 ft 349 kts 273°
2026-04-17 08:26 28.37292 113.95348 11978 ft 335 kts 273°
2026-04-17 08:26 28.37431 113.92755 11828 ft 322 kts 273°
2026-04-17 08:26 28.37565 113.90253 11681 ft 310 kts 273°
2026-04-17 08:26 28.37650 113.88653 11588 ft 302 kts 273°
2026-04-17 08:27 28.37809 113.85575 11372 ft 285 kts 273°
2026-04-17 08:27 28.37924 113.83367 11242 ft 273 kts 273°
2026-04-17 08:27 28.37998 113.81949 11141 ft 266 kts 273°
2026-04-17 08:27 28.38142 113.79200 10756 ft 261 kts 273°
2026-04-17 08:28 28.38215 113.77814 10509 ft 260 kts 273°
2026-04-17 08:28 28.38321 113.75780 10150 ft 260 kts 273°
2026-04-17 08:28 28.38428 113.73723 9827 ft 260 kts 273°
2026-04-17 08:28 28.38535 113.71673 9545 ft 259 kts 273°
2026-04-17 08:29 28.38673 113.68978 9195 ft 257 kts 274°
2026-04-17 08:29 28.38744 113.67605 9017 ft 258 kts 274°
2026-04-17 08:29 28.38850 113.65570 8773 ft 258 kts 273°
2026-04-17 08:29 28.38953 113.63552 8527 ft 255 kts 274°
2026-04-17 08:30 28.39056 113.61539 8294 ft 257 kts 274°
2026-04-17 08:30 28.39159 113.59542 8045 ft 255 kts 274°
2026-04-17 08:30 28.39262 113.57543 7809 ft 250 kts 274°
2026-04-17 08:30 28.39366 113.55589 7560 ft 245 kts 274°
2026-04-17 08:31 28.39471 113.53672 7304 ft 239 kts 274°
2026-04-17 08:31 28.39574 113.51834 7084 ft 232 kts 275°
2026-04-17 08:31 28.39673 113.50031 6902 ft 225 kts 275°
2026-04-17 08:31 28.39764 113.48272 6862 ft 223 kts 274°
2026-04-17 08:32 28.39867 113.46509 6737 ft 223 kts 276°
2026-04-17 08:32 28.40016 113.44798 6560 ft 209 kts 277°
2026-04-17 08:32 28.40164 113.43208 6392 ft 199 kts 277°
2026-04-17 08:32 28.40311 113.41651 6064 ft 197 kts 278°
2026-04-17 08:33 28.40447 113.40121 5700 ft 198 kts 278°
2026-04-17 08:33 28.40581 113.38564 5363 ft 197 kts 277°
2026-04-17 08:33 28.40716 113.37012 5033 ft 197 kts 277°
2026-04-17 08:33 28.40849 113.35464 4723 ft 197 kts 278°
2026-04-17 08:34 28.40947 113.33769 4410 ft 196 kts 272°
2026-04-17 08:34 28.40887 113.32226 4151 ft 195 kts 269°
2026-04-17 08:34 28.40814 113.30692 3908 ft 193 kts 270°
2026-04-17 08:34 28.40744 113.29161 3667 ft 193 kts 270°
2026-04-17 08:35 28.40678 113.27650 3416 ft 189 kts 269°
2026-04-17 08:35 28.40562 113.26193 3178 ft 186 kts 266°
2026-04-17 08:35 28.40362 113.24750 2909 ft 186 kts 252°
2026-04-17 08:35 28.39659 113.23530 2644 ft 184 kts 226°
2026-04-17 08:36 28.38640 113.22686 2411 ft 179 kts 216°
2026-04-17 08:36 28.37607 113.21908 2277 ft 178 kts 218°
2026-04-17 08:36 28.36959 113.20793 2254 ft 169 kts 263°
2026-04-17 08:36 28.37048 113.19507 2288 ft 166 kts 285°
2026-04-17 08:37 28.37308 113.18232 2303 ft 165 kts 286°
2026-04-17 08:37 28.37570 113.16955 2296 ft 166 kts 286°
2026-04-17 08:37 28.37854 113.15684 2299 ft 166 kts 296°
2026-04-17 08:37 28.38619 113.14775 2281 ft 160 kts 338°
2026-04-17 08:38 28.39699 113.14715 2283 ft 159 kts 19°
2026-04-17 08:38 28.40528 113.15523 2292 ft 164 kts 61°
2026-04-17 08:38 28.40675 113.16784 2295 ft 169 kts 99°
2026-04-17 08:38 28.40290 113.18058 2300 ft 171 kts 118°
2026-04-17 08:39 28.39580 113.19165 2309 ft 174 kts 126°
2026-04-17 08:39 28.38839 113.20241 2297 ft 172 kts 126°
2026-04-17 08:39 28.37917 113.21060 2213 ft 177 kts 165°
2026-04-17 08:39 28.36690 113.21203 2213 ft 177 kts 175°
2026-04-17 08:40 28.35463 113.21303 2261 ft 176 kts 175°
2026-04-17 08:40 28.34228 113.21402 2322 ft 178 kts 175°
2026-04-17 08:40 28.32993 113.21499 2367 ft 180 kts 176°
2026-04-17 08:40 28.31756 113.21594 2269 ft 177 kts 176°
2026-04-17 08:41 28.30526 113.21683 2111 ft 176 kts 177°
2026-04-17 08:41 28.29312 113.21765 2027 ft 177 kts 176°
2026-04-17 08:41 28.28130 113.21844 1893 ft 157 kts 177°
2026-04-17 08:41 28.27071 113.21895 1701 ft 150 kts 178°
2026-04-17 08:42 28.26027 113.21934 1408 ft 150 kts 178°
2026-04-17 08:42 28.24987 113.21973 1122 ft 148 kts 178°
2026-04-17 08:42 28.23986 113.22031 867 ft 143 kts 177°
2026-04-17 08:42 28.23003 113.22113 714 ft 142 kts 178°
2026-04-17 08:43 28.22023 113.22186 537 ft 138 kts 179°
2026-04-17 08:43 28.21072 113.22236 314 ft 137 kts 180°
2026-04-17 08:43 28.20144 113.22290 224 ft 120 kts 177°
2026-04-17 08:43 28.19486 113.22332 223 ft 71 kts 177°
2026-04-17 08:44 28.19128 113.22353 220 ft 45 kts 176°
2026-04-17 08:44 28.18952 113.22354 221 ft 19 kts 192°
2026-04-17 08:44 28.18818 113.22307 222 ft 21 kts 201°
2026-04-17 08:44 28.18718 113.22259 222 ft 13 kts 204°
2026-04-17 08:45 28.18628 113.22214 224 ft 15 kts 203°
2026-04-17 08:45 28.18522 113.22197 220 ft 16 kts 176°
2026-04-17 08:45 28.18403 113.22204 223 ft 18 kts 177°
2026-04-17 08:45 28.18272 113.22212 220 ft 19 kts 176°
2026-04-17 08:46 28.18136 113.22221 223 ft 9 kts 177°
2026-04-17 08:46 28.18094 113.22222 223 ft 7 kts 185°
2026-04-17 08:46 28.18068 113.22174 220 ft 9 kts 262°
2026-04-17 08:46 28.18064 113.22095 223 ft 12 kts 274°
2026-04-17 08:47 28.18087 113.21999 222 ft 14 kts 291°
2026-04-17 08:47 28.18091 113.21906 220 ft 8 kts 269°
2026-04-17 08:47 28.18101 113.21854 226 ft 7 kts 327°
2026-04-17 08:47 28.18146 113.21837 222 ft 8 kts 356°
2026-04-17 08:48 28.18207 113.21832 222 ft 10 kts 356°
2026-04-17 08:48 28.18280 113.21827 222 ft 12 kts 356°
2026-04-17 08:48 28.18361 113.21822 219 ft 9 kts 357°
2026-04-17 08:48 28.18430 113.21819 219 ft 11 kts 358°
2026-04-17 08:49 28.18513 113.21814 223 ft 13 kts 356°
2026-04-17 08:49 28.18610 113.21808 219 ft 15 kts 356°
2026-04-17 08:49 28.18718 113.21801 219 ft 16 kts 357°
2026-04-17 08:49 28.18815 113.21795 224 ft 8 kts 356°
2026-04-17 08:50 28.18873 113.21768 219 ft 10 kts 304°
2026-04-17 08:50 28.18881 113.21680 219 ft 12 kts 267°
2026-04-17 08:50 28.18876 113.21576 222 ft 12 kts 267°
2026-04-17 08:50 28.18870 113.21517 219 ft 4 kts 231°
2026-04-17 08:51 28.18850 113.21509 227 ft 3 kts 187°
2026-04-17 08:51 28.18830 113.21508 219 ft 2 kts 180°
2026-04-17 08:51 28.18819 113.21508 223 ft 0 kts 179°